Weather History for Indianapolis, IN

Change the Weather History Date:

Monday, February 18, 2013

  Actual Average Record
Temperature  
Mean Temperature 43 °F 33 °F  
Max Temperature 60 °F 41 °F 66 °F (1961)
Min Temperature 26 °F 25 °F -11 °F (1936)
Degree Days  
Heating Degree Days 22 32  
Month to date heating degree days 609 618  
Since 1 July heating degree days 3673 3839  
Cooling Degree Days 0 0  
Month to date cooling degree days 0 0  
Year to date cooling degree days 0 0  
Moisture  
Dew Point 29 °F    
Average Humidity 67    
Maximum Humidity 92    
Minimum Humidity 41    
Precipitation  
Precipitation 0.20 in 0.08 in 1.58 in (1871)
Month to date precipitation 0.50 1.47  
Year to date precipitation 6.01 4.13  
Snow  
Snow 0.00 in 0.20 in 4.40 in (1979)
Month to date snowfall 1.5 4.6  
Since 1 July snowfall 18.9 21.2  
Snow Depth 0.00 in    
Sea Level Pressure  
Sea Level Pressure 29.88 in    
Wind  
Wind Speed 19 mph (South)    
Max Wind Speed 40 mph    
Max Gust Speed 51 mph    
Visibility 9 miles    
Events Rain    
T = Trace of Precipitation, MM = Missing Value Source: NWS Daily Summary

Daily Weather History Graph

Daily Weather History Graph

Search for Another Location

Airport:

Trip Planner

Search our weather history database for the weather conditions in past years. The results will help you decide how hot, cold, wet, or windy it might be!

Date:

Astronomy

Feb. 18, 2013 Rise Set
Actual Time 7:33 AM EST 6:25 PM EST
Civil Twilight 7:05 AM EST 6:52 PM EST
Nautical Twilight 6:34 AM EST 7:24 PM EST
Astronomical Twilight 6:03 AM EST 7:55 PM EST
Moon 12:11 PM EST (2/18) 2:12 AM EST (2/18)
Length of Visible Light 11h 46m
Length of Day
10h 51m
First Quarter, 58% of the Moon is Illuminated
Feb 18
First Quarter
Feb 25
Full
Mar 4
Last Quarter
Mar 11
New
Mar 19
First Quarter

Hourly Weather History & Observations

Time (EST) Temp. Windchill Dew Point Humidity Pressure Visibility Wind Dir Wind Speed Gust Speed Precip Events Conditions
12:54 AM 27.0 °F 16.7 °F 12.0 °F 53% 30.14 in 10.0 mi SE 11.5 mph - N/A   Scattered Clouds
1:54 AM 27.0 °F 15.2 °F 12.0 °F 53% 30.12 in 10.0 mi SE 15.0 mph - N/A   Partly Cloudy
2:54 AM 28.0 °F 16.5 °F 12.0 °F 51% 30.09 in 10.0 mi SE 15.0 mph - N/A   Partly Cloudy
3:54 AM 27.0 °F 14.7 °F 12.9 °F 56% 30.07 in 10.0 mi SE 16.1 mph - N/A   Scattered Clouds
4:54 AM 28.0 °F 17.0 °F 15.1 °F 58% 30.05 in 10.0 mi SE 13.8 mph - N/A   Scattered Clouds
5:54 AM 28.0 °F 17.5 °F 16.0 °F 61% 30.04 in 10.0 mi SSE 12.7 mph - N/A   Mostly Cloudy
7:54 AM 28.0 °F 19.3 °F 17.1 °F 63% 30.01 in 10.0 mi SE 9.2 mph - N/A   Mostly Cloudy
8:54 AM 33.1 °F 25.5 °F 19.0 °F 56% 29.99 in 10.0 mi SSE 9.2 mph - N/A   Mostly Cloudy
9:54 AM 39.9 °F 31.4 °F 24.1 °F 53% 29.97 in 10.0 mi South 16.1 mph - N/A   Mostly Cloudy
10:54 AM 46.0 °F 39.3 °F 28.9 °F 51% 29.94 in 10.0 mi South 16.1 mph - N/A   Mostly Cloudy
11:54 AM 50.0 °F - 33.1 °F 52% 29.92 in 10.0 mi South 19.6 mph 26.5 mph N/A   Mostly Cloudy
12:54 PM 54.0 °F - 37.0 °F 53% 29.89 in 10.0 mi SSW 21.9 mph 26.5 mph N/A   Mostly Cloudy
1:54 PM 55.9 °F - 39.0 °F 53% 29.84 in 10.0 mi South 20.7 mph 27.6 mph N/A   Mostly Cloudy
2:54 PM 59.0 °F - 37.9 °F 46% 29.80 in 10.0 mi South 31.1 mph 39.1 mph N/A   Mostly Cloudy
3:54 PM 57.9 °F - 36.0 °F 44% 29.77 in 10.0 mi South 23.0 mph 32.2 mph N/A   Mostly Cloudy
4:54 PM 55.9 °F - 32.0 °F 40% 29.75 in 10.0 mi South 24.2 mph 32.2 mph N/A   Overcast
5:54 PM 52.0 °F - 37.0 °F 57% 29.75 in 10.0 mi SW 29.9 mph 41.4 mph 0.00 in Rain Light Rain
6:54 PM 46.9 °F - 39.9 °F 77% 29.77 in 10.0 mi SSW 20.7 mph - 0.01 in Rain Light Rain
7:54 PM 46.9 °F - 39.9 °F 77% 29.71 in 10.0 mi South 10.4 mph - 0.01 in   Overcast
8:54 PM 46.9 °F - 41.0 °F 80% 29.69 in 6.0 mi South 32.2 mph 43.7 mph 0.00 in Rain Light Rain
9:54 PM 45.0 °F 35.8 °F 42.1 °F 90% 29.65 in 6.0 mi South 26.5 mph 34.5 mph 0.05 in Rain Light Rain
10:37 PM 46.4 °F 37.0 °F 42.8 °F 87% 29.62 in 5.0 mi South 31.1 mph 41.4 mph 0.07 in Rain Rain
10:54 PM 45.0 °F 35.6 °F 42.1 °F 90% 29.62 in 7.0 mi South 27.6 mph 40.3 mph 0.10 in Rain Light Rain
11:54 PM 46.0 °F 36.9 °F 42.1 °F 86% 29.58 in 10.0 mi South 28.8 mph 40.3 mph 0.03 in Rain Light Rain